Time,TemperatureF,DewpointF,PressureIn,WindDirection,WindDirectionDegrees,WindSpeedMPH,WindSpeedGustMPH,Humidity,HourlyPrecipIn,Conditions,Clouds,dailyrainin,SolarRadiationWatts/m^2,SoftwareType,DateUTC
2013-03-04 00:00:00,37.6,30.7,30.14,SW,232,4.0,7.0,76,0.00,,,0.00,0.0,meteohub,2013-03-04 05:00:00,
2013-03-04 00:05:00,37.0,30.2,30.14,SW,232,3.0,7.0,76,0.00,,,0.00,0.0,meteohub,2013-03-04 05:05:00,
2013-03-04 00:10:00,36.9,30.4,30.14,SW,232,3.0,6.0,77,0.00,,,0.00,0.0,meteohub,2013-03-04 05:10:00,
2013-03-04 00:15:00,36.9,30.4,30.14,SW,232,3.0,6.0,77,0.00,,,0.00,0.0,meteohub,2013-03-04 05:15:00,
2013-03-04 00:20:00,36.9,30.4,30.14,SW,232,3.0,5.0,77,0.00,,,0.00,0.0,meteohub,2013-03-04 05:20:00,
2013-03-04 00:25:00,36.3,29.8,30.15,SW,232,3.0,4.0,77,0.00,,,0.00,0.0,meteohub,2013-03-04 05:25:00,
2013-03-04 00:30:00,36.1,30.0,30.15,SW,231,4.0,5.0,78,0.00,,,0.00,0.0,meteohub,2013-03-04 05:30:00,
2013-03-04 00:35:00,36.0,30.0,30.15,SW,231,3.0,5.0,79,0.00,,,0.00,0.0,meteohub,2013-03-04 05:35:00,
2013-03-04 00:40:00,35.8,29.8,30.14,SW,231,2.0,5.0,79,0.00,,,0.00,0.0,meteohub,2013-03-04 05:40:00,
2013-03-04 00:45:00,35.8,30.2,30.15,SW,231,3.0,5.0,80,0.00,,,0.00,0.0,meteohub,2013-03-04 05:45:00,
2013-03-04 00:50:00,35.8,30.2,30.14,SW,231,2.0,4.0,80,0.00,,,0.00,0.0,meteohub,2013-03-04 05:50:00,
2013-03-04 00:55:00,35.8,30.2,30.14,SW,231,2.0,4.0,80,0.00,,,0.00,0.0,meteohub,2013-03-04 05:55:00,
2013-03-04 01:00:00,35.8,30.6,30.14,SW,231,3.0,4.0,81,0.00,,,0.00,0.0,meteohub,2013-03-04 06:00:00,
2013-03-04 01:06:00,35.8,30.2,30.14,SW,231,3.0,3.0,80,0.00,,,0.00,0.0,meteohub,2013-03-04 06:06:00,
2013-03-04 01:11:00,35.6,30.4,30.14,SW,231,3.0,4.0,81,0.00,,,0.00,0.0,meteohub,2013-03-04 06:11:00,
2013-03-04 01:16:00,35.8,30.7,30.14,SW,231,3.0,4.0,82,0.00,,,0.00,0.0,meteohub,2013-03-04 06:16:00,
2013-03-04 01:21:00,35.8,30.7,30.14,SW,231,3.0,5.0,82,0.00,,,0.00,0.0,meteohub,2013-03-04 06:21:00,
2013-03-04 01:26:00,35.4,30.7,30.14,SW,231,3.0,5.0,83,0.00,,,0.00,0.0,meteohub,2013-03-04 06:26:00,
2013-03-04 01:31:00,35.2,30.6,30.14,SW,231,3.0,5.0,83,0.00,,,0.00,0.0,meteohub,2013-03-04 06:31:00,
2013-03-04 01:36:00,35.2,30.6,30.14,SW,231,2.0,4.0,83,0.00,,,0.00,0.0,meteohub,2013-03-04 06:36:00,
2013-03-04 01:41:00,35.1,30.4,30.14,SW,231,4.0,4.0,83,0.00,,,0.00,0.0,meteohub,2013-03-04 06:41:00,
2013-03-04 01:46:00,34.9,30.6,30.14,SW,231,3.0,4.0,84,0.00,,,0.00,0.0,meteohub,2013-03-04 06:46:00,
2013-03-04 01:51:00,35.1,30.9,30.14,SW,232,4.0,5.0,85,0.00,,,0.00,0.0,meteohub,2013-03-04 06:51:00,
2013-03-04 01:56:00,35.2,30.9,30.14,SW,232,5.0,6.0,84,0.00,,,0.00,0.0,meteohub,2013-03-04 06:56:00,
2013-03-04 02:01:00,35.2,30.9,30.14,WSW,245,4.0,6.0,84,0.00,,,0.00,0.0,meteohub,2013-03-04 07:01:00,
2013-03-04 02:06:00,35.2,30.9,30.14,WSW,245,4.0,6.0,84,0.00,,,0.00,0.0,meteohub,2013-03-04 07:06:00,
2013-03-04 02:11:00,35.1,30.7,30.14,WSW,245,3.0,6.0,84,0.00,,,0.00,0.0,meteohub,2013-03-04 07:11:00,
2013-03-04 02:16:00,34.9,30.6,30.14,WSW,245,4.0,6.0,84,0.00,,,0.00,0.0,meteohub,2013-03-04 07:16:00,
2013-03-04 02:21:00,34.9,30.6,30.14,WSW,245,4.0,6.0,84,0.00,,,0.00,0.0,meteohub,2013-03-04 07:21:00,
2013-03-04 02:26:00,35.1,30.7,30.14,WSW,245,4.0,6.0,84,0.00,,,0.00,0.0,meteohub,2013-03-04 07:26:00,
2013-03-04 02:31:00,35.1,30.4,30.13,WSW,245,3.0,6.0,83,0.00,,,0.00,0.0,meteohub,2013-03-04 07:31:00,
2013-03-04 02:36:00,35.2,30.6,30.14,WSW,237,5.0,5.0,83,0.00,,,0.00,0.0,meteohub,2013-03-04 07:36:00,
2013-03-04 02:41:00,35.2,30.6,30.14,WSW,237,3.0,6.0,83,0.00,,,0.00,0.0,meteohub,2013-03-04 07:41:00,
2013-03-04 02:46:00,35.2,30.6,30.13,WSW,237,4.0,6.0,83,0.00,,,0.00,0.0,meteohub,2013-03-04 07:46:00,
2013-03-04 02:51:00,35.1,30.2,30.13,WSW,237,3.0,6.0,82,0.00,,,0.00,0.0,meteohub,2013-03-04 07:51:00,
2013-03-04 02:56:00,35.1,30.4,30.13,WSW,237,4.0,6.0,83,0.00,,,0.00,0.0,meteohub,2013-03-04 07:56:00,
2013-03-04 03:01:00,35.1,30.4,30.13,WSW,237,3.0,5.0,83,0.00,,,0.00,0.0,meteohub,2013-03-04 08:01:00,
2013-03-04 03:06:00,34.7,30.0,30.13,WSW,237,4.0,5.0,83,0.00,,,0.00,0.0,meteohub,2013-03-04 08:06:00,
2013-03-04 03:11:00,34.7,30.4,30.13,WSW,237,3.0,5.0,84,0.00,,,0.00,0.0,meteohub,2013-03-04 08:11:00,
2013-03-04 03:16:00,34.5,30.2,30.13,WSW,237,3.0,5.0,84,0.00,,,0.00,0.0,meteohub,2013-03-04 08:16:00,
2013-03-04 03:21:00,34.3,30.4,30.13,WSW,237,4.0,5.0,85,0.00,,,0.00,0.0,meteohub,2013-03-04 08:21:00,
2013-03-04 03:26:00,34.3,30.4,30.13,WSW,237,3.0,5.0,85,0.00,,,0.00,0.0,meteohub,2013-03-04 08:26:00,
2013-03-04 03:31:00,34.3,30.4,30.13,WSW,237,3.0,5.0,85,0.00,,,0.00,0.0,meteohub,2013-03-04 08:31:00,
2013-03-04 03:36:00,34.2,30.2,30.12,WSW,237,3.0,5.0,85,0.00,,,0.00,0.0,meteohub,2013-03-04 08:36:00,
2013-03-04 03:41:00,34.5,30.7,30.12,WSW,237,2.0,4.0,86,0.00,,,0.00,0.0,meteohub,2013-03-04 08:41:00,
2013-03-04 03:46:00,35.2,31.8,30.12,West,273,3.0,4.0,87,0.00,,,0.00,0.0,meteohub,2013-03-04 08:46:00,
2013-03-04 03:51:00,36.1,32.0,30.12,West,271,4.0,5.0,85,0.00,,,0.00,0.0,meteohub,2013-03-04 08:51:00,
2013-03-04 03:56:00,36.1,31.5,30.12,West,271,3.0,5.0,83,0.00,,,0.00,0.0,meteohub,2013-03-04 08:56:00,
2013-03-04 04:01:00,35.4,31.1,30.12,WSW,252,4.0,5.0,84,0.00,,,0.00,0.0,meteohub,2013-03-04 09:01:00,
2013-03-04 04:06:00,35.1,30.9,30.13,WSW,250,5.0,5.0,85,0.00,,,0.00,0.0,meteohub,2013-03-04 09:06:00,
2013-03-04 04:11:00,34.9,31.1,30.13,WSW,250,5.0,5.0,86,0.00,,,0.00,0.0,meteohub,2013-03-04 09:11:00,
2013-03-04 04:16:00,34.7,30.9,30.13,WSW,250,4.0,5.0,86,0.00,,,0.00,0.0,meteohub,2013-03-04 09:16:00,
2013-03-04 04:21:00,34.3,30.6,30.13,WSW,250,3.0,5.0,86,0.00,,,0.00,0.0,meteohub,2013-03-04 09:21:00,
2013-03-04 04:26:00,34.9,31.6,30.14,West,265,4.0,5.0,88,0.00,,,0.00,0.0,meteohub,2013-03-04 09:26:00,
2013-03-04 04:31:00,35.8,32.4,30.13,West,266,4.0,5.0,87,0.00,,,0.00,0.0,meteohub,2013-03-04 09:31:00,
2013-03-04 04:36:00,36.7,32.5,30.14,West,265,2.0,5.0,85,0.00,,,0.00,0.0,meteohub,2013-03-04 09:36:00,
2013-03-04 04:41:00,36.9,32.2,30.14,West,265,4.0,5.0,83,0.00,,,0.00,0.0,meteohub,2013-03-04 09:41:00,
2013-03-04 04:46:00,37.2,32.5,30.14,West,278,5.0,6.0,83,0.00,,,0.00,0.0,meteohub,2013-03-04 09:46:00,
2013-03-04 04:51:00,37.6,32.5,30.14,West,278,3.0,6.0,82,0.00,,,0.00,0.0,meteohub,2013-03-04 09:51:00,
2013-03-04 04:56:00,37.8,32.5,30.14,West,278,4.0,6.0,81,0.00,,,0.00,0.0,meteohub,2013-03-04 09:56:00,
2013-03-04 05:01:00,37.8,32.5,30.14,West,278,3.0,5.0,81,0.00,,,0.00,0.0,meteohub,2013-03-04 10:01:00,
2013-03-04 05:06:00,37.8,32.5,30.14,West,278,2.0,5.0,81,0.00,,,0.00,0.0,meteohub,2013-03-04 10:06:00,
2013-03-04 05:11:00,37.6,32.4,30.14,West,278,3.0,5.0,81,0.00,,,0.00,0.0,meteohub,2013-03-04 10:11:00,
2013-03-04 05:16:00,37.6,32.4,30.14,WNW,297,5.0,6.0,81,0.00,,,0.00,0.0,meteohub,2013-03-04 10:16:00,
2013-03-04 05:21:00,37.6,32.4,30.14,WNW,291,6.0,7.0,81,0.00,,,0.00,0.0,meteohub,2013-03-04 10:21:00,
2013-03-04 05:27:00,37.0,31.8,30.14,WNW,291,4.0,7.0,81,0.00,,,0.00,0.0,meteohub,2013-03-04 10:27:00,
2013-03-04 05:32:00,36.9,31.8,30.14,WNW,291,3.0,7.0,82,0.00,,,0.00,0.0,meteohub,2013-03-04 10:32:00,
2013-03-04 05:37:00,36.9,31.8,30.14,WNW,291,3.0,6.0,82,0.00,,,0.00,0.0,meteohub,2013-03-04 10:37:00,
2013-03-04 05:42:00,36.9,31.8,30.15,WNW,292,4.0,6.0,82,0.00,,,0.00,0.0,meteohub,2013-03-04 10:42:00,
2013-03-04 05:47:00,36.7,31.6,30.15,WNW,290,3.0,7.0,82,0.00,,,0.00,0.0,meteohub,2013-03-04 10:47:00,
2013-03-04 05:52:00,36.3,31.6,30.15,WNW,290,3.0,7.0,83,0.00,,,0.00,0.0,meteohub,2013-03-04 10:52:00,
2013-03-04 05:57:00,36.3,31.6,30.16,WNW,290,3.0,6.0,83,0.00,,,0.00,0.0,meteohub,2013-03-04 10:57:00,
2013-03-04 06:02:00,36.5,32.2,30.16,WNW,290,5.0,6.0,84,0.00,,,0.00,0.0,meteohub,2013-03-04 11:02:00,
2013-03-04 06:07:00,36.7,32.0,30.16,NW,306,5.0,7.0,83,0.00,,,0.00,0.0,meteohub,2013-03-04 11:07:00,
2013-03-04 06:12:00,36.5,31.8,30.16,NW,306,3.0,7.0,83,0.00,,,0.00,0.0,meteohub,2013-03-04 11:12:00,
2013-03-04 06:17:00,36.1,31.5,30.16,WNW,300,6.0,7.0,83,0.00,,,0.00,0.0,meteohub,2013-03-04 11:17:00,
2013-03-04 06:22:00,36.1,31.8,30.16,NW,308,5.0,7.0,84,0.00,,,0.00,0.0,meteohub,2013-03-04 11:22:00,
2013-03-04 06:27:00,36.1,31.5,30.16,NW,304,5.0,7.0,83,0.00,,,0.00,0.0,meteohub,2013-03-04 11:27:00,
2013-03-04 06:32:00,36.1,31.5,30.16,NW,304,7.0,7.0,83,0.00,,,0.00,0.0,meteohub,2013-03-04 11:32:00,
2013-03-04 06:37:00,36.1,31.5,30.16,NW,314,5.0,7.0,83,0.00,,,0.00,0.0,meteohub,2013-03-04 11:37:00,
2013-03-04 06:42:00,36.3,31.3,30.16,NW,315,6.0,7.0,82,0.00,,,0.00,0.0,meteohub,2013-03-04 11:42:00,
2013-03-04 06:47:00,36.5,31.3,30.16,NW,313,6.0,8.0,81,0.00,,,0.00,5.0,meteohub,2013-03-04 11:47:00,
2013-03-04 06:52:00,36.9,31.3,30.16,NW,321,7.0,9.0,80,0.00,,,0.00,9.0,meteohub,2013-03-04 11:52:00,
2013-03-04 06:57:00,37.0,31.1,30.17,NW,307,8.0,10.0,79,0.00,,,0.00,14.0,meteohub,2013-03-04 11:57:00,
2013-03-04 07:02:00,37.4,31.1,30.16,NW,316,8.0,10.0,78,0.00,,,0.00,19.0,meteohub,2013-03-04 12:02:00,
2013-03-04 07:07:00,37.8,30.9,30.16,NW,310,6.0,12.0,76,0.00,,,0.00,30.0,meteohub,2013-03-04 12:07:00,
2013-03-04 07:11:00,37.9,30.7,30.17,NW,321,6.0,12.0,75,0.00,,,0.00,35.0,meteohub,2013-03-04 12:11:00,
2013-03-04 07:16:00,38.1,30.9,30.17,NNW,332,5.0,12.0,75,0.00,,,0.00,56.0,meteohub,2013-03-04 12:16:00,
2013-03-04 07:22:00,38.1,30.9,30.17,NNW,328,5.0,10.0,75,0.00,,,0.00,74.0,meteohub,2013-03-04 12:22:00,
2013-03-04 07:27:00,38.3,30.7,30.17,NW,318,6.0,10.0,74,0.00,,,0.00,93.0,meteohub,2013-03-04 12:27:00,
2013-03-04 07:32:00,38.5,30.6,30.18,NW,306,7.0,9.0,73,0.00,,,0.00,113.0,meteohub,2013-03-04 12:32:00,
2013-03-04 07:37:00,38.7,30.7,30.18,NW,309,5.0,9.0,73,0.00,,,0.00,128.0,meteohub,2013-03-04 12:37:00,
2013-03-04 07:42:00,39.0,30.7,30.18,NW,314,6.0,9.0,72,0.00,,,0.00,146.0,meteohub,2013-03-04 12:42:00,
2013-03-04 07:47:00,39.6,31.3,30.18,NW,323,5.0,10.0,72,0.00,,,0.00,165.0,meteohub,2013-03-04 12:47:00,
2013-03-04 07:52:00,39.9,31.3,30.19,NW,309,6.0,11.0,71,0.00,,,0.00,183.0,meteohub,2013-03-04 12:52:00,
2013-03-04 07:57:00,40.5,31.5,30.19,NW,317,6.0,11.0,70,0.00,,,0.00,202.0,meteohub,2013-03-04 12:57:00,
2013-03-04 08:02:00,40.6,31.3,30.19,WNW,301,7.0,11.0,69,0.00,,,0.00,221.0,meteohub,2013-03-04 13:02:00,
2013-03-04 08:07:00,40.8,30.7,30.19,WNW,292,8.0,10.0,67,0.00,,,0.00,241.0,meteohub,2013-03-04 13:07:00,
2013-03-04 08:12:00,41.4,30.9,30.19,NW,317,7.0,10.0,66,0.00,,,0.00,258.0,meteohub,2013-03-04 13:12:00,
2013-03-04 08:17:00,41.7,30.4,30.19,NW,313,6.0,10.0,64,0.00,,,0.00,278.0,meteohub,2013-03-04 13:17:00,
2013-03-04 08:22:00,42.1,30.7,30.20,WNW,296,7.0,11.0,64,0.00,,,0.00,299.0,meteohub,2013-03-04 13:22:00,
2013-03-04 08:27:00,42.4,30.7,30.20,WNW,286,6.0,11.0,63,0.00,,,0.00,316.0,meteohub,2013-03-04 13:27:00,
2013-03-04 08:32:00,43.2,31.1,30.21,WNW,300,7.0,11.0,62,0.00,,,0.00,336.0,meteohub,2013-03-04 13:32:00,
2013-03-04 08:37:00,43.3,30.7,30.21,West,269,7.0,10.0,61,0.00,,,0.00,355.0,meteohub,2013-03-04 13:37:00,
2013-03-04 08:42:00,43.7,30.7,30.21,NW,304,6.0,10.0,60,0.00,,,0.00,371.0,meteohub,2013-03-04 13:42:00,
2013-03-04 08:47:00,43.9,30.6,30.21,WNW,301,6.0,10.0,59,0.00,,,0.00,390.0,meteohub,2013-03-04 13:47:00,
2013-03-04 08:52:00,44.1,30.7,30.22,NW,305,7.0,10.0,59,0.00,,,0.00,410.0,meteohub,2013-03-04 13:52:00,
2013-03-04 08:57:00,44.4,30.9,30.22,WNW,288,8.0,11.0,59,0.00,,,0.00,427.0,meteohub,2013-03-04 13:57:00,
2013-03-04 09:02:00,45.1,30.4,30.22,NW,304,7.0,11.0,56,0.00,,,0.00,446.0,meteohub,2013-03-04 14:02:00,
2013-03-04 09:07:00,45.3,30.9,30.22,WNW,298,7.0,11.0,57,0.00,,,0.00,464.0,meteohub,2013-03-04 14:07:00,
2013-03-04 09:12:00,45.9,31.1,30.22,WNW,296,6.0,12.0,56,0.00,,,0.00,483.0,meteohub,2013-03-04 14:12:00,
2013-03-04 09:17:00,46.4,30.2,30.21,NNW,339,6.0,12.0,53,0.00,,,0.00,496.0,meteohub,2013-03-04 14:17:00,
2013-03-04 09:22:00,47.5,28.8,30.22,NW,316,10.0,12.0,48,0.00,,,0.00,510.0,meteohub,2013-03-04 14:22:00,
2013-03-04 09:27:00,47.5,27.7,30.21,NW,313,11.0,14.0,46,0.00,,,0.00,531.0,meteohub,2013-03-04 14:27:00,
2013-03-04 09:32:00,48.0,27.7,30.21,North,349,13.0,14.0,45,0.00,,,0.00,547.0,meteohub,2013-03-04 14:32:00,
2013-03-04 09:37:00,48.2,27.9,30.21,NW,313,6.0,14.0,45,0.00,,,0.00,564.0,meteohub,2013-03-04 14:37:00,
2013-03-04 09:42:00,48.9,28.0,30.21,NNW,329,10.0,15.0,44,0.00,,,0.00,580.0,meteohub,2013-03-04 14:42:00,
2013-03-04 09:47:00,49.5,27.9,30.21,NW,323,9.0,15.0,43,0.00,,,0.00,596.0,meteohub,2013-03-04 14:47:00,
2013-03-04 09:52:00,49.5,27.3,30.21,NNW,340,9.0,14.0,42,0.00,,,0.00,608.0,meteohub,2013-03-04 14:52:00,
2013-03-04 09:57:00,49.6,27.0,30.22,NW,310,9.0,15.0,41,0.00,,,0.00,626.0,meteohub,2013-03-04 14:57:00,
2013-03-04 10:02:00,50.0,27.1,30.21,NW,305,7.0,16.0,41,0.00,,,0.00,638.0,meteohub,2013-03-04 15:02:00,
2013-03-04 10:07:00,50.4,27.0,30.21,NNW,329,11.0,16.0,40,0.00,,,0.00,652.0,meteohub,2013-03-04 15:07:00,
2013-03-04 10:12:00,50.5,26.4,30.21,NW,311,10.0,16.0,39,0.00,,,0.00,666.0,meteohub,2013-03-04 15:12:00,
2013-03-04 10:17:00,50.7,26.1,30.21,NW,325,7.0,15.0,38,0.00,,,0.00,679.0,meteohub,2013-03-04 15:17:00,
2013-03-04 10:22:00,51.3,25.9,30.21,NW,311,11.0,13.0,37,0.00,,,0.00,694.0,meteohub,2013-03-04 15:22:00,
2013-03-04 10:27:00,51.8,23.5,30.20,NNW,348,7.0,16.0,33,0.00,,,0.00,705.0,meteohub,2013-03-04 15:27:00,
2013-03-04 10:32:00,52.5,23.5,30.21,NNW,331,13.0,16.0,32,0.00,,,0.00,719.0,meteohub,2013-03-04 15:32:00,
2013-03-04 10:37:00,52.3,22.6,30.21,NNW,346,9.0,15.0,31,0.00,,,0.00,728.0,meteohub,2013-03-04 15:37:00,
2013-03-04 10:42:00,52.5,23.5,30.21,NW,315,12.0,15.0,32,0.00,,,0.00,740.0,meteohub,2013-03-04 15:42:00,
2013-03-04 10:47:00,53.1,20.8,30.21,NNW,342,12.0,15.0,28,0.00,,,0.00,752.0,meteohub,2013-03-04 15:47:00,
2013-03-04 10:52:00,53.8,22.3,30.21,NNE,28,4.0,15.0,29,0.00,,,0.00,761.0,meteohub,2013-03-04 15:52:00,
2013-03-04 10:57:00,53.6,20.5,30.21,North,0,5.0,13.0,27,0.00,,,0.00,772.0,meteohub,2013-03-04 15:57:00,
2013-03-04 11:02:00,54.0,19.8,30.21,NNW,344,8.0,14.0,26,0.00,,,0.00,779.0,meteohub,2013-03-04 16:02:00,
2013-03-04 11:07:00,54.1,19.0,30.20,NW,320,5.0,14.0,25,0.00,,,0.00,791.0,meteohub,2013-03-04 16:07:00,
2013-03-04 11:12:00,54.3,21.0,30.21,NW,312,10.0,14.0,27,0.00,,,0.00,798.0,meteohub,2013-03-04 16:12:00,
2013-03-04 11:16:00,54.9,21.6,30.20,NW,318,14.0,14.0,27,0.00,,,0.00,807.0,meteohub,2013-03-04 16:16:00,
2013-03-04 11:22:00,55.0,21.7,30.20,NW,317,6.0,15.0,27,0.00,,,0.00,812.0,meteohub,2013-03-04 16:22:00,
2013-03-04 11:27:00,55.2,22.6,30.19,NE,38,7.0,15.0,28,0.00,,,0.00,821.0,meteohub,2013-03-04 16:27:00,
2013-03-04 11:32:00,54.7,24.6,30.19,NE,40,8.0,15.0,31,0.00,,,0.00,826.0,meteohub,2013-03-04 16:32:00,
2013-03-04 11:37:00,54.9,24.8,30.20,NNW,346,5.0,14.0,31,0.00,,,0.00,833.0,meteohub,2013-03-04 16:37:00,
2013-03-04 11:42:00,55.0,24.1,30.20,WNW,282,5.0,13.0,30,0.00,,,0.00,838.0,meteohub,2013-03-04 16:42:00,
2013-03-04 11:47:00,55.4,23.7,30.20,WNW,283,3.0,10.0,29,0.00,,,0.00,844.0,meteohub,2013-03-04 16:47:00,
2013-03-04 11:52:00,55.9,25.7,30.19,North,351,6.0,9.0,31,0.00,,,0.00,847.0,meteohub,2013-03-04 16:52:00,
2013-03-04 11:57:00,56.7,27.9,30.19,NE,36,8.0,13.0,33,0.00,,,0.00,853.0,meteohub,2013-03-04 16:57:00,
2013-03-04 12:02:00,56.3,26.1,30.19,North,0,5.0,13.0,31,0.00,,,0.00,858.0,meteohub,2013-03-04 17:02:00,
2013-03-04 12:07:00,55.9,28.8,30.19,NNW,341,6.0,13.0,35,0.00,,,0.00,861.0,meteohub,2013-03-04 17:07:00,
2013-03-04 12:12:00,56.1,29.5,30.19,NE,56,6.0,13.0,36,0.00,,,0.00,863.0,meteohub,2013-03-04 17:12:00,
2013-03-04 12:17:00,55.9,28.8,30.19,NE,38,3.0,13.0,35,0.00,,,0.00,867.0,meteohub,2013-03-04 17:17:00,
2013-03-04 12:22:00,56.5,29.1,30.18,NNE,32,6.0,11.0,35,0.00,,,0.00,870.0,meteohub,2013-03-04 17:22:00,
2013-03-04 12:27:00,56.5,29.1,30.18,East,82,2.0,11.0,35,0.00,,,0.00,868.0,meteohub,2013-03-04 17:27:00,
2013-03-04 12:32:00,56.7,32.0,30.18,ENE,69,10.0,11.0,39,0.00,,,0.00,870.0,meteohub,2013-03-04 17:32:00,
2013-03-04 12:37:00,57.0,31.6,30.18,NE,39,8.0,10.0,38,0.00,,,0.00,868.0,meteohub,2013-03-04 17:37:00,
2013-03-04 12:42:00,57.6,31.5,30.17,NE,49,9.0,11.0,37,0.00,,,0.00,874.0,meteohub,2013-03-04 17:42:00,
2013-03-04 12:47:00,57.6,30.7,30.17,NNE,17,6.0,11.0,36,0.00,,,0.00,874.0,meteohub,2013-03-04 17:47:00,
2013-03-04 12:52:00,57.7,32.9,30.17,NE,46,7.0,12.0,39,0.00,,,0.00,870.0,meteohub,2013-03-04 17:52:00,
2013-03-04 12:57:00,57.0,30.9,30.17,NE,53,8.0,12.0,37,0.00,,,0.00,870.0,meteohub,2013-03-04 17:57:00,
2013-03-04 13:02:00,56.8,33.4,30.17,NE,55,4.0,12.0,41,0.00,,,0.00,867.0,meteohub,2013-03-04 18:02:00,
2013-03-04 13:07:00,57.6,34.0,30.17,NE,38,4.0,12.0,41,0.00,,,0.00,865.0,meteohub,2013-03-04 18:07:00,
2013-03-04 13:12:00,57.4,33.8,30.17,ENE,63,10.0,12.0,41,0.00,,,0.00,863.0,meteohub,2013-03-04 18:12:00,
2013-03-04 13:17:00,57.4,33.8,30.16,ENE,59,12.0,13.0,41,0.00,,,0.00,858.0,meteohub,2013-03-04 18:17:00,
2013-03-04 13:22:00,57.4,33.8,30.16,ENE,65,11.0,13.0,41,0.00,,,0.00,856.0,meteohub,2013-03-04 18:22:00,
2013-03-04 13:27:00,57.9,34.3,30.16,NNE,19,5.0,13.0,41,0.00,,,0.00,849.0,meteohub,2013-03-04 18:27:00,
2013-03-04 13:29:00,57.9,36.1,30.15,ENE,60,4.0,13.0,44,0.00,,,0.00,847.0,meteohub,2013-03-04 18:29:00,
2013-03-04 13:30:00,58.1,36.3,30.15,NNE,33,8.0,13.0,44,0.00,,,0.00,847.0,meteohub,2013-03-04 18:30:00,
2013-03-04 13:35:00,58.5,34.9,30.15,NE,50,8.0,12.0,41,0.00,,,0.00,840.0,meteohub,2013-03-04 18:35:00,
2013-03-04 13:40:00,58.6,36.1,30.15,ENE,63,7.0,13.0,43,0.00,,,0.00,835.0,meteohub,2013-03-04 18:40:00,
2013-03-04 13:45:00,58.5,35.4,30.15,ENE,63,9.0,13.0,42,0.00,,,0.00,831.0,meteohub,2013-03-04 18:45:00,
2013-03-04 13:50:00,57.9,34.9,30.14,NNE,13,7.0,14.0,42,0.00,,,0.00,824.0,meteohub,2013-03-04 18:50:00,
2013-03-04 13:55:00,58.1,34.0,30.14,NE,55,8.0,14.0,40,0.00,,,0.00,816.0,meteohub,2013-03-04 18:55:00,
2013-03-04 14:00:00,58.5,36.0,30.14,NE,36,7.0,13.0,43,0.00,,,0.00,810.0,meteohub,2013-03-04 19:00:00,
2013-03-04 14:05:00,57.9,34.3,30.13,North,355,8.0,13.0,41,0.00,,,0.00,802.0,meteohub,2013-03-04 19:05:00,
2013-03-04 14:10:00,58.3,35.2,30.13,ENE,57,9.0,13.0,42,0.00,,,0.00,793.0,meteohub,2013-03-04 19:10:00,
2013-03-04 14:15:00,58.3,36.0,30.13,NE,38,7.0,12.0,43,0.00,,,0.00,784.0,meteohub,2013-03-04 19:15:00,
2013-03-04 14:20:00,57.7,36.0,30.13,NE,47,10.0,12.0,44,0.00,,,0.00,775.0,meteohub,2013-03-04 19:20:00,
2013-03-04 14:25:00,57.7,36.0,30.13,ENE,63,8.0,12.0,44,0.00,,,0.00,768.0,meteohub,2013-03-04 19:25:00,
2013-03-04 14:30:00,58.3,36.0,30.13,East,82,6.0,11.0,43,0.00,,,0.00,756.0,meteohub,2013-03-04 19:30:00,
2013-03-04 14:35:00,58.8,36.3,30.13,ENE,63,8.0,11.0,43,0.00,,,0.00,747.0,meteohub,2013-03-04 19:35:00,
2013-03-04 14:40:00,59.0,36.5,30.13,NE,55,5.0,11.0,43,0.00,,,0.00,733.0,meteohub,2013-03-04 19:40:00,
2013-03-04 14:45:00,58.6,36.1,30.13,ENE,71,4.0,11.0,43,0.00,,,0.00,721.0,meteohub,2013-03-04 19:45:00,
2013-03-04 14:51:00,58.6,36.9,30.12,ENE,71,11.0,11.0,44,0.00,,,0.00,710.0,meteohub,2013-03-04 19:51:00,
2013-03-04 14:56:00,58.8,37.0,30.12,East,89,7.0,12.0,44,0.00,,,0.00,700.0,meteohub,2013-03-04 19:56:00,
2013-03-04 15:01:00,59.2,37.2,30.12,ENE,69,7.0,13.0,44,0.00,,,0.00,687.0,meteohub,2013-03-04 20:01:00,
2013-03-04 15:06:00,60.1,37.6,30.12,NE,34,6.0,14.0,43,0.00,,,0.00,673.0,meteohub,2013-03-04 20:06:00,
2013-03-04 15:11:00,59.7,37.8,30.12,ENE,74,9.0,14.0,44,0.00,,,0.00,663.0,meteohub,2013-03-04 20:11:00,
2013-03-04 15:16:00,59.5,38.1,30.12,NE,55,8.0,12.0,45,0.00,,,0.00,649.0,meteohub,2013-03-04 20:16:00,
2013-03-04 15:21:00,59.2,37.9,30.12,NE,56,8.0,12.0,45,0.00,,,0.00,629.0,meteohub,2013-03-04 20:21:00,
2013-03-04 15:26:00,59.2,38.5,30.12,ENE,61,9.0,11.0,46,0.00,,,0.00,621.0,meteohub,2013-03-04 20:26:00,
2013-03-04 15:31:00,58.6,39.0,30.12,ENE,74,9.0,13.0,48,0.00,,,0.00,603.0,meteohub,2013-03-04 20:31:00,
2013-03-04 15:36:00,58.8,38.7,30.12,East,86,8.0,13.0,47,0.00,,,0.00,589.0,meteohub,2013-03-04 20:36:00,
2013-03-04 15:41:00,59.2,39.0,30.12,ENE,69,7.0,11.0,47,0.00,,,0.00,571.0,meteohub,2013-03-04 20:41:00,
2013-03-04 15:46:00,59.5,39.4,30.12,East,92,7.0,13.0,47,0.00,,,0.00,555.0,meteohub,2013-03-04 20:46:00,
2013-03-04 15:51:00,58.8,38.7,30.12,ENE,71,8.0,13.0,47,0.00,,,0.00,540.0,meteohub,2013-03-04 20:51:00,
2013-03-04 15:56:00,59.2,39.6,30.12,ENE,78,7.0,10.0,48,0.00,,,0.00,524.0,meteohub,2013-03-04 20:56:00,
2013-03-04 16:01:00,59.2,39.6,30.12,NE,53,6.0,10.0,48,0.00,,,0.00,506.0,meteohub,2013-03-04 21:01:00,
2013-03-04 16:06:00,58.6,39.0,30.12,ENE,65,3.0,10.0,48,0.00,,,0.00,487.0,meteohub,2013-03-04 21:06:00,
2013-03-04 16:11:00,58.8,38.7,30.12,East,79,6.0,11.0,47,0.00,,,0.00,475.0,meteohub,2013-03-04 21:11:00,
2013-03-04 16:16:00,58.5,38.8,30.12,ENE,71,8.0,11.0,48,0.00,,,0.00,457.0,meteohub,2013-03-04 21:16:00,
2013-03-04 16:21:00,58.8,39.2,30.12,ENE,65,4.0,11.0,48,0.00,,,0.00,443.0,meteohub,2013-03-04 21:21:00,
2013-03-04 16:26:00,58.6,39.0,30.12,ESE,105,5.0,9.0,48,0.00,,,0.00,420.0,meteohub,2013-03-04 21:26:00,
2013-03-04 16:31:00,58.8,39.7,30.12,East,96,9.0,9.0,49,0.00,,,0.00,401.0,meteohub,2013-03-04 21:31:00,
2013-03-04 16:36:00,58.6,39.0,30.12,ENE,57,7.0,10.0,48,0.00,,,0.00,383.0,meteohub,2013-03-04 21:36:00,
2013-03-04 16:41:00,58.8,40.3,30.12,ENE,61,8.0,10.0,50,0.00,,,0.00,364.0,meteohub,2013-03-04 21:41:00,
2013-03-04 16:46:00,59.0,39.9,30.12,East,89,7.0,10.0,49,0.00,,,0.00,352.0,meteohub,2013-03-04 21:46:00,
2013-03-04 16:51:00,58.6,39.6,30.12,East,90,8.0,10.0,49,0.00,,,0.00,325.0,meteohub,2013-03-04 21:51:00,
2013-03-04 16:56:00,58.6,39.6,30.12,NE,52,5.0,10.0,49,0.00,,,0.00,311.0,meteohub,2013-03-04 21:56:00,
2013-03-04 17:01:00,58.5,40.8,30.12,ENE,61,9.0,11.0,52,0.00,,,0.00,290.0,meteohub,2013-03-04 22:01:00,
2013-03-04 17:06:00,58.3,40.8,30.12,ENE,75,7.0,11.0,52,0.00,,,0.00,271.0,meteohub,2013-03-04 22:06:00,
2013-03-04 17:11:00,58.3,41.2,30.12,NE,47,7.0,11.0,53,0.00,,,0.00,251.0,meteohub,2013-03-04 22:11:00,
2013-03-04 17:16:00,58.3,40.8,30.12,NE,52,6.0,10.0,52,0.00,,,0.00,232.0,meteohub,2013-03-04 22:16:00,
2013-03-04 17:21:00,57.9,40.5,30.12,ENE,59,5.0,10.0,52,0.00,,,0.00,211.0,meteohub,2013-03-04 22:21:00,
2013-03-04 17:26:00,57.7,41.2,30.12,East,93,6.0,10.0,54,0.00,,,0.00,188.0,meteohub,2013-03-04 22:26:00,
2013-03-04 17:31:00,57.7,40.6,30.12,East,82,7.0,9.0,53,0.00,,,0.00,167.0,meteohub,2013-03-04 22:31:00,
2013-03-04 17:36:00,57.6,40.6,30.13,East,99,5.0,9.0,53,0.00,,,0.00,144.0,meteohub,2013-03-04 22:36:00,
2013-03-04 17:41:00,57.4,41.4,30.13,ENE,78,5.0,9.0,55,0.00,,,0.00,123.0,meteohub,2013-03-04 22:41:00,
2013-03-04 17:46:00,57.2,41.2,30.13,ENE,64,5.0,8.0,55,0.00,,,0.00,109.0,meteohub,2013-03-04 22:46:00,
2013-03-04 17:51:00,57.0,40.5,30.13,ENE,73,4.0,8.0,54,0.00,,,0.00,83.0,meteohub,2013-03-04 22:51:00,
2013-03-04 17:56:00,57.0,41.0,30.12,ENE,72,5.0,8.0,55,0.00,,,0.00,65.0,meteohub,2013-03-04 22:56:00,
2013-03-04 18:01:00,56.8,41.4,30.13,East,85,7.0,8.0,56,0.00,,,0.00,47.0,meteohub,2013-03-04 23:01:00,
2013-03-04 18:06:00,56.7,41.2,30.12,East,95,5.0,7.0,56,0.00,,,0.00,35.0,meteohub,2013-03-04 23:06:00,
2013-03-04 18:11:00,56.7,41.2,30.13,ESE,108,3.0,7.0,56,0.00,,,0.00,25.0,meteohub,2013-03-04 23:11:00,
2013-03-04 18:16:00,56.5,41.0,30.13,ESE,108,3.0,7.0,56,0.00,,,0.00,18.0,meteohub,2013-03-04 23:16:00,
2013-03-04 18:21:00,55.9,41.0,30.13,East,90,3.0,5.0,57,0.00,,,0.00,9.0,meteohub,2013-03-04 23:21:00,
2013-03-04 18:26:00,55.4,41.4,30.13,East,90,3.0,5.0,59,0.00,,,0.00,5.0,meteohub,2013-03-04 23:26:00,
2013-03-04 18:31:00,55.2,41.2,30.13,East,90,2.0,5.0,59,0.00,,,0.00,0.0,meteohub,2013-03-04 23:31:00,
2013-03-04 18:36:00,55.2,41.2,30.13,East,90,1.0,5.0,59,0.00,,,0.00,0.0,meteohub,2013-03-04 23:36:00,
2013-03-04 18:41:00,55.2,41.5,30.13,East,90,2.0,3.0,60,0.00,,,0.00,0.0,meteohub,2013-03-04 23:41:00,
2013-03-04 18:46:00,55.0,41.4,30.13,East,90,2.0,3.0,60,0.00,,,0.00,0.0,meteohub,2013-03-04 23:46:00,
2013-03-04 18:51:00,54.3,41.2,30.14,East,90,2.0,3.0,61,0.00,,,0.00,0.0,meteohub,2013-03-04 23:51:00,
2013-03-04 18:56:00,54.1,41.4,30.14,East,90,1.0,3.0,62,0.00,,,0.00,0.0,meteohub,2013-03-04 23:56:00,
2013-03-04 19:01:00,54.0,42.1,30.14,East,90,0.0,2.0,64,0.00,,,0.00,0.0,meteohub,2013-03-05 00:01:00,
2013-03-04 19:06:00,54.0,42.1,30.14,East,90,0.0,2.0,64,0.00,,,0.00,0.0,meteohub,2013-03-05 00:06:00,
2013-03-04 19:11:00,53.8,41.9,30.14,East,90,1.0,2.0,64,0.00,,,0.00,0.0,meteohub,2013-03-05 00:11:00,
2013-03-04 19:16:00,54.0,42.1,30.14,East,90,0.0,2.0,64,0.00,,,0.00,0.0,meteohub,2013-03-05 00:16:00,
2013-03-04 19:21:00,53.4,42.3,30.14,East,90,2.0,2.0,66,0.00,,,0.00,0.0,meteohub,2013-03-05 00:21:00,
2013-03-04 19:27:00,52.3,42.1,30.14,East,90,2.0,3.0,68,0.00,,,0.00,0.0,meteohub,2013-03-05 00:27:00,
2013-03-04 19:32:00,51.4,41.9,30.14,SE,128,3.0,3.0,70,0.00,,,0.00,0.0,meteohub,2013-03-05 00:32:00,
2013-03-04 19:37:00,50.7,41.7,30.15,South,176,3.0,4.0,71,0.00,,,0.00,0.0,meteohub,2013-03-05 00:37:00,
2013-03-04 19:42:00,50.7,41.7,30.15,South,176,2.0,4.0,71,0.00,,,0.00,0.0,meteohub,2013-03-05 00:42:00,
2013-03-04 19:47:00,50.7,42.1,30.15,South,176,1.0,4.0,72,0.00,,,0.00,0.0,meteohub,2013-03-05 00:47:00,
2013-03-04 19:52:00,51.1,42.8,30.15,South,176,2.0,4.0,73,0.00,,,0.00,0.0,meteohub,2013-03-05 00:52:00,
2013-03-04 19:57:00,50.7,42.4,30.14,South,176,2.0,3.0,73,0.00,,,0.00,0.0,meteohub,2013-03-05 00:57:00,
2013-03-04 20:02:00,50.4,42.1,30.15,South,176,2.0,4.0,73,0.00,,,0.00,0.0,meteohub,2013-03-05 01:02:00,
2013-03-04 20:07:00,50.2,42.3,30.15,South,176,3.0,4.0,74,0.00,,,0.00,0.0,meteohub,2013-03-05 01:07:00,
2013-03-04 20:12:00,49.8,42.3,30.15,South,176,4.0,4.0,75,0.00,,,0.00,0.0,meteohub,2013-03-05 01:12:00,
2013-03-04 20:17:00,49.8,42.6,30.15,South,176,2.0,4.0,76,0.00,,,0.00,0.0,meteohub,2013-03-05 01:17:00,
2013-03-04 20:22:00,50.2,43.0,30.16,South,176,2.0,4.0,76,0.00,,,0.00,0.0,meteohub,2013-03-05 01:22:00,
2013-03-04 20:27:00,50.4,42.4,30.16,South,176,1.0,4.0,74,0.00,,,0.00,0.0,meteohub,2013-03-05 01:27:00,
2013-03-04 20:32:00,50.4,42.4,30.16,South,176,2.0,4.0,74,0.00,,,0.00,0.0,meteohub,2013-03-05 01:32:00,
2013-03-04 20:37:00,50.4,42.4,30.16,South,176,1.0,3.0,74,0.00,,,0.00,0.0,meteohub,2013-03-05 01:37:00,
2013-03-04 20:42:00,50.2,42.3,30.16,South,176,0.0,3.0,74,0.00,,,0.00,0.0,meteohub,2013-03-05 01:42:00,
2013-03-04 20:47:00,50.2,42.6,30.16,South,176,0.0,3.0,75,0.00,,,0.00,0.0,meteohub,2013-03-05 01:47:00,
2013-03-04 20:52:00,49.8,42.6,30.16,South,176,1.0,2.0,76,0.00,,,0.00,0.0,meteohub,2013-03-05 01:52:00,
2013-03-04 20:57:00,50.2,42.6,30.16,South,176,2.0,2.0,75,0.00,,,0.00,0.0,meteohub,2013-03-05 01:57:00,
2013-03-04 21:02:00,49.8,42.3,30.16,South,176,2.0,3.0,75,0.00,,,0.00,0.0,meteohub,2013-03-05 02:02:00,
2013-03-04 21:07:00,49.3,42.1,30.16,South,176,1.0,3.0,76,0.00,,,0.00,0.0,meteohub,2013-03-05 02:07:00,
2013-03-04 21:12:00,48.9,42.1,30.16,South,176,1.0,3.0,77,0.00,,,0.00,0.0,meteohub,2013-03-05 02:12:00,
2013-03-04 21:17:00,49.1,42.6,30.16,South,176,2.0,3.0,78,0.00,,,0.00,0.0,meteohub,2013-03-05 02:17:00,
2013-03-04 21:22:00,49.3,42.8,30.16,South,176,0.0,3.0,78,0.00,,,0.00,0.0,meteohub,2013-03-05 02:22:00,
2013-03-04 21:27:00,49.3,42.8,30.16,South,176,0.0,2.0,78,0.00,,,0.00,0.0,meteohub,2013-03-05 02:27:00,
2013-03-04 21:32:00,49.3,42.4,30.17,South,176,2.0,3.0,77,0.00,,,0.00,0.0,meteohub,2013-03-05 02:32:00,
2013-03-04 21:37:00,49.5,42.6,30.17,South,176,1.0,3.0,77,0.00,,,0.00,0.0,meteohub,2013-03-05 02:37:00,
2013-03-04 21:42:00,49.5,42.3,30.17,South,176,0.0,3.0,76,0.00,,,0.00,0.0,meteohub,2013-03-05 02:42:00,
2013-03-04 21:47:00,49.5,42.3,30.17,South,176,0.0,2.0,76,0.00,,,0.00,0.0,meteohub,2013-03-05 02:47:00,
2013-03-04 21:52:00,49.6,42.4,30.16,South,176,0.0,2.0,76,0.00,,,0.00,0.0,meteohub,2013-03-05 02:52:00,
2013-03-04 21:57:00,49.5,42.3,30.16,South,176,0.0,2.0,76,0.00,,,0.00,0.0,meteohub,2013-03-05 02:57:00,
2013-03-04 22:02:00,49.6,42.4,30.16,South,174,1.0,5.0,76,0.00,,,0.00,0.0,meteohub,2013-03-05 03:02:00,
2013-03-04 22:07:00,49.5,42.3,30.16,South,174,1.0,5.0,76,0.00,,,0.00,0.0,meteohub,2013-03-05 03:07:00,
2013-03-04 22:12:00,49.1,41.9,30.16,South,174,1.0,5.0,76,0.00,,,0.00,0.0,meteohub,2013-03-05 03:12:00,
2013-03-04 22:17:00,48.7,41.9,30.15,South,174,0.0,3.0,77,0.00,,,0.00,0.0,meteohub,2013-03-05 03:17:00,
2013-03-04 22:22:00,48.6,42.1,30.15,South,174,0.0,2.0,78,0.00,,,0.00,0.0,meteohub,2013-03-05 03:22:00,
2013-03-04 22:27:00,48.2,42.1,30.15,South,174,0.0,2.0,79,0.00,,,0.00,0.0,meteohub,2013-03-05 03:27:00,
2013-03-04 22:32:00,48.2,42.1,30.15,South,174,0.0,2.0,79,0.00,,,0.00,0.0,meteohub,2013-03-05 03:32:00,
2013-03-04 22:37:00,48.0,42.1,30.16,South,174,0.0,1.0,80,0.00,,,0.00,0.0,meteohub,2013-03-05 03:37:00,
2013-03-04 22:42:00,48.4,42.4,30.16,South,174,0.0,1.0,80,0.00,,,0.00,0.0,meteohub,2013-03-05 03:42:00,
2013-03-04 22:47:00,48.6,42.3,30.15,South,174,1.0,2.0,79,0.00,,,0.00,0.0,meteohub,2013-03-05 03:47:00,
2013-03-04 22:52:00,48.6,42.3,30.15,South,174,1.0,2.0,79,0.00,,,0.00,0.0,meteohub,2013-03-05 03:52:00,
2013-03-04 22:57:00,48.0,42.1,30.15,South,174,0.0,2.0,80,0.00,,,0.00,0.0,meteohub,2013-03-05 03:57:00,
2013-03-04 23:02:00,47.7,42.1,30.15,South,174,0.0,2.0,81,0.00,,,0.00,0.0,meteohub,2013-03-05 04:02:00,
2013-03-04 23:07:00,47.3,41.7,30.15,South,174,0.0,2.0,81,0.00,,,0.00,0.0,meteohub,2013-03-05 04:07:00,
2013-03-04 23:12:00,47.5,41.9,30.15,South,174,2.0,2.0,81,0.00,,,0.00,0.0,meteohub,2013-03-05 04:12:00,
2013-03-04 23:16:00,47.7,42.1,30.15,South,174,0.0,2.0,81,0.00,,,0.00,0.0,meteohub,2013-03-05 04:16:00,
2013-03-04 23:22:00,47.5,41.9,30.15,South,174,0.0,2.0,81,0.00,,,0.00,0.0,meteohub,2013-03-05 04:22:00,
2013-03-04 23:27:00,47.5,41.9,30.15,South,174,0.0,2.0,81,0.00,,,0.00,0.0,meteohub,2013-03-05 04:27:00,
2013-03-04 23:32:00,47.7,41.7,30.15,South,174,0.0,2.0,80,0.00,,,0.00,0.0,meteohub,2013-03-05 04:32:00,
2013-03-04 23:37:00,47.7,41.7,30.15,South,174,2.0,2.0,80,0.00,,,0.00,0.0,meteohub,2013-03-05 04:37:00,
2013-03-04 23:42:00,47.5,41.5,30.15,South,174,1.0,3.0,80,0.00,,,0.00,0.0,meteohub,2013-03-05 04:42:00,
2013-03-04 23:47:00,47.5,41.5,30.14,South,174,0.0,3.0,80,0.00,,,0.00,0.0,meteohub,2013-03-05 04:47:00,
2013-03-04 23:52:00,47.3,41.4,30.15,South,174,1.0,3.0,80,0.00,,,0.00,0.0,meteohub,2013-03-05 04:52:00,
2013-03-04 23:57:00,47.3,41.4,30.14,South,174,1.0,2.0,80,0.00,,,0.00,0.0,meteohub,2013-03-05 04:57:00,